Location: Newark
(15.4608°S, 41.1635°W)
Time: 14:36:25
(UTC+00:00)

Vanguard 3 - Pass Details

Date: 10 March 2021
Orbit: 508 x 3262 km, 33.3° (Epoch: 16 April)

Event Time Altitude Azimuth Distance (km) Brightness Sun altitude
Rises 07:58:50 0° 222° (SW) 3,048 9.8 -12.4°
Exits shadow 07:58:50 - 222° (SW) 3,048 9.8 -12.4°
Reaches altitude 10° 08:01:26 10° 204° (SSW) 2,377 9.4 -11.8°
Maximum altitude 08:05:40 21° 154° (SSE) 2,140 9.7 -10.8°
Drops below altitude 10° 08:11:42 10° 108° (ESE) 3,538 11.9 -9.3°
Sets 08:16:41 0° 94° (E) 5,095 13.8 -8.1°
